,,,PA_Meas_PMT16A,,PR_Meas_QMR101_102,,RH_Meas_QMH101,,SR_Meas_QMS101,,TA_Meas_QMH101,,GenWind,,GenWind,
date,time,status,PA,status,PR,status,RH,status,SR,status,TA,status,DirAvg,status,SpdAvg,
2012-01-12, 00:00:04,VALID,1008.72,VALID,0,VALID,104,VALID,0.112112,VALID,24.3547,VALID,333,VALID,0.626953,
2012-01-12, 00:01:04,VALID,1008.68,VALID,0,VALID,104,VALID,0.112112,VALID,24.3352,VALID,341,VALID,0.500781,
2012-01-12, 00:02:04,VALID,1008.66,VALID,0,VALID,104,VALID,0.112112,VALID,24.3158,VALID,12,VALID,0.541797,
2012-01-12, 00:03:04,VALID,1008.64,VALID,0,VALID,104,VALID,0.112112,VALID,24.3158,VALID,12,VALID,0.123828,
2012-01-12, 00:04:04,VALID,1008.65,VALID,0,VALID,104,VALID,0.112112,VALID,24.3352,VALID,349,VALID,0.947656,
2012-01-12, 00:05:04,VALID,1008.64,VALID,0,VALID,104,VALID,0.112112,VALID,24.3352,VALID,347,VALID,0.362891,
2012-01-12, 00:06:04,VALID,1008.64,VALID,0,VALID,104,VALID,0.112112,VALID,24.3352,VALID,327,VALID,0.323047,
2012-01-12, 00:07:04,VALID,1008.67,VALID,0,VALID,104,VALID,0,VALID,24.3779,VALID,327,VALID,0.430469,
2012-01-12, 00:08:04,VALID,1008.64,VALID,0,VALID,104,VALID,0,VALID,24.3584,VALID,328,VALID,0.5125,
2012-01-12, 00:09:04,VALID,1008.59,VALID,0.5,VALID,104,VALID,0,VALID,24.3371,VALID,338,VALID,0.521094,
2012-01-12, 00:10:04,VALID,1008.56,VALID,0,VALID,104,VALID,0,VALID,24.3389,VALID,338,VALID,0.258594,
2012-01-12, 00:11:04,VALID,1008.52,VALID,0,VALID,104,VALID,0,VALID,24.3176,VALID,338,VALID,0.503516,
2012-01-12, 00:12:04,VALID,1008.5,VALID,0,VALID,104,VALID,0,VALID,24.3371,VALID,338,VALID,0.375781,
2012-01-12, 00:13:04,VALID,1008.48,VALID,0,VALID,104,VALID,0,VALID,24.3389,VALID,338,VALID,0.391016,
2012-01-12, 00:14:04,VALID,1008.5,VALID,0,VALID,104,VALID,0,VALID,24.3371,VALID,338,VALID,0.248047,
2012-01-12, 00:15:04,VALID,1008.52,VALID,0,VALID,104,VALID,0,VALID,24.3176,VALID,338,VALID,0.149609,
2012-01-12, 00:16:04,VALID,1008.48,VALID,0,VALID,104,VALID,0,VALID,24.3389,VALID,338,VALID,0.419531,
2012-01-12, 00:17:04,VALID,1008.47,VALID,0,VALID,104,VALID,0,VALID,24.3371,VALID,338,VALID,0.119531,
2012-01-12, 00:18:04,VALID,1008.44,VALID,0,VALID,104,VALID,0,VALID,24.3566,VALID,338,VALID,0,
2012-01-12, 00:19:04,VALID,1008.4,VALID,0,VALID,104,VALID,0,VALID,24.3761,VALID,338,VALID,0,
2012-01-12, 00:20:04,VALID,1008.4,VALID,0,VALID,104,VALID,0,VALID,24.3761,VALID,338,VALID,0,
2012-01-12, 00:21:04,VALID,1008.4,VALID,0,VALID,104,VALID,0,VALID,24.3761,VALID,338,VALID,0,
2012-01-12, 00:22:04,VALID,1008.38,VALID,0,VALID,104,VALID,0,VALID,24.3761,VALID,338,VALID,0,
2012-01-12, 00:23:04,VALID,1008.39,VALID,0,VALID,104,VALID,0,VALID,24.3761,VALID,338,VALID,0,
2012-01-12, 00:24:04,VALID,1008.4,VALID,0,VALID,104,VALID,0,VALID,24.3956,VALID,338,VALID,0,
2012-01-12, 00:25:04,VALID,1008.37,VALID,0.5,VALID,104,VALID,0,VALID,24.415,VALID,338,VALID,0,
2012-01-12, 00:26:04,VALID,1008.39,VALID,0,VALID,104,VALID,0,VALID,24.3956,VALID,338,VALID,0,
2012-01-12, 00:27:04,VALID,1008.38,VALID,0,VALID,104,VALID,0,VALID,24.3742,VALID,338,VALID,0,
2012-01-12, 00:28:04,VALID,1008.38,VALID,0,VALID,104,VALID,0,VALID,24.3761,VALID,338,VALID,0.715234,
2012-01-12, 00:29:04,VALID,1008.39,VALID,0,VALID,104,VALID,0,VALID,24.3566,VALID,168,VALID,0.722266,
2012-01-12, 00:30:04,VALID,1008.41,VALID,0,VALID,104,VALID,0,VALID,24.3974,VALID,168,VALID,0.549609,
2012-01-12, 00:31:04,VALID,1008.42,VALID,0,VALID,104,VALID,0,VALID,24.3566,VALID,168,VALID,0.407813,
2012-01-12, 00:32:04,VALID,1008.43,VALID,0,VALID,104,VALID,0,VALID,24.3761,VALID,168,VALID,0.530078,
2012-01-12, 00:33:04,VALID,1008.41,VALID,1,VALID,104,VALID,0,VALID,24.3761,VALID,174,VALID,0.741797,
2012-01-12, 00:34:04,VALID,1008.34,VALID,1,VALID,104,VALID,0,VALID,24.3761,VALID,169,VALID,0.893359,
2012-01-12, 00:35:04,VALID,1008.32,VALID,0.5,VALID,104,VALID,0,VALID,24.3761,VALID,140,VALID,0.885156,
2012-01-12, 00:36:04,VALID,1008.25,VALID,0.5,VALID,104,VALID,0,VALID,24.3974,VALID,119,VALID,0.713672,
2012-01-12, 00:37:04,VALID,1008.24,VALID,0,VALID,104,VALID,0,VALID,24.415,VALID,80,VALID,0.910547,
2012-01-12, 00:38:04,VALID,1008.25,VALID,0.5,VALID,104,VALID,0,VALID,24.415,VALID,70,VALID,0.413281,
2012-01-12, 00:39:04,VALID,1008.26,VALID,0.5,VALID,104,VALID,0,VALID,24.415,VALID,49,VALID,0.433203,
2012-01-12, 00:40:04,VALID,1008.25,VALID,0.5,VALID,104,VALID,0,VALID,24.3956,VALID,49,VALID,0.505078,
2012-01-12, 00:41:04,VALID,1008.24,VALID,0,VALID,104,VALID,0,VALID,24.3956,VALID,49,VALID,0.474609,
2012-01-12, 00:42:04,VALID,1008.17,VALID,1,VALID,104,VALID,0,VALID,24.3956,VALID,87,VALID,1.11719,
2012-01-12, 00:43:04,VALID,1008.12,VALID,0.5,VALID,104,VALID,0,VALID,24.4169,VALID,106,VALID,1.48672,
2012-01-12, 00:44:04,VALID,1008.11,VALID,0,VALID,104,VALID,0,VALID,24.3956,VALID,117,VALID,1.37891,
2012-01-12, 00:45:04,VALID,1008.18,VALID,0.5,VALID,104,VALID,0,VALID,24.415,VALID,130,VALID,0.990234,
2012-01-12, 00:46:04,VALID,1008.34,VALID,0,VALID,104,VALID,0,VALID,24.3956,VALID,126,VALID,0.198437,
2012-01-12, 00:47:04,VALID,1008.44,VALID,0,VALID,104,VALID,0,VALID,24.4364,VALID,275,VALID,0.771094,
2012-01-12, 00:48:04,VALID,1008.46,VALID,1.5,VALID,104,VALID,0,VALID,24.454,VALID,274,VALID,0.171094,
2012-01-12, 00:49:04,VALID,1008.48,VALID,1.5,VALID,104,VALID,0,VALID,24.4735,VALID,223,VALID,0.771875,
2012-01-12, 00:50:04,VALID,1008.5,VALID,1.5,VALID,104,VALID,0,VALID,24.454,VALID,269,VALID,0.483203,
2012-01-12, 00:51:04,VALID,1008.46,VALID,1.5,VALID,104,VALID,0,VALID,24.454,VALID,318,VALID,0.26875,
2012-01-12, 00:52:04,VALID,1008.44,VALID,1,VALID,104,VALID,0.112112,VALID,24.4327,VALID,280,VALID,0.86875,
2012-01-12, 00:53:04,VALID,1008.35,VALID,1.5,VALID,104,VALID,0.112112,VALID,24.4132,VALID,329,VALID,0.421484,
2012-01-12, 00:54:04,VALID,1008.27,VALID,1.5,VALID,104,VALID,0.112112,VALID,24.415,VALID,57,VALID,0.823828,
2012-01-12, 00:55:04,VALID,1008.21,VALID,1,VALID,104,VALID,0.112112,VALID,24.3547,VALID,57,VALID,0.599219,
2012-01-12, 00:56:04,VALID,1008.18,VALID,0.5,VALID,104,VALID,0.112112,VALID,24.3547,VALID,57,VALID,0.677344,
2012-01-12, 00:57:04,VALID,1008.17,VALID,0.5,VALID,104,VALID,0.112112,VALID,24.3937,VALID,61,VALID,0.644141,
2012-01-12, 00:58:04,VALID,1008.22,VALID,0,VALID,104,VALID,0.112112,VALID,24.3937,VALID,63,VALID,0.438672,
2012-01-12, 00:59:04,VALID,1008.27,VALID,0,VALID,104,VALID,0.112112,VALID,24.4327,VALID,63,VALID,0.45625,
2012-01-12, 01:00:04,VALID,1008.27,VALID,0,VALID,104,VALID,0.112112,VALID,24.4132,VALID,63,VALID,0.152344,
2012-01-12, 01:01:04,VALID,1008.29,VALID,0,VALID,104,VALID,0.112112,VALID,24.4327,VALID,63,VALID,0.383594,
2012-01-12, 01:02:04,VALID,1008.28,VALID,0,VALID,104,VALID,0.112112,VALID,24.4522,VALID,62,VALID,0.338281,
2012-01-12, 01:03:04,VALID,1008.26,VALID,0,VALID,104,VALID,0.112112,VALID,24.4522,VALID,62,VALID,0.293359,
2012-01-12, 01:04:04,VALID,1008.26,VALID,0,VALID,104,VALID,0.112112,VALID,24.4327,VALID,62,VALID,0.0460938,
2012-01-12, 01:05:04,VALID,1008.29,VALID,0,VALID,104,VALID,0.112112,VALID,24.3919,VALID,62,VALID,0.343359,
2012-01-12, 01:06:04,VALID,1008.28,VALID,0,VALID,104,VALID,0.112112,VALID,24.3919,VALID,62,VALID,0.00273437,
2012-01-12, 01:07:04,VALID,1008.29,VALID,0,VALID,104,VALID,0,VALID,24.3956,VALID,62,VALID,0.398438,
2012-01-12, 01:08:04,VALID,1008.32,VALID,0,VALID,104,VALID,0,VALID,24.415,VALID,62,VALID,0,
2012-01-12, 01:09:04,VALID,1008.27,VALID,0,VALID,104,VALID,0,VALID,24.415,VALID,39,VALID,0.149219,
2012-01-12, 01:10:04,VALID,1008.25,VALID,0,VALID,104,VALID,0,VALID,24.415,VALID,39,VALID,0.176172,
2012-01-12, 01:11:04,VALID,1008.22,VALID,0,VALID,104,VALID,0,VALID,24.415,VALID,39,VALID,0.368359,
2012-01-12, 01:12:04,VALID,1008.23,VALID,0,VALID,104,VALID,0,VALID,24.415,VALID,39,VALID,0.233594,
2012-01-12, 01:13:04,VALID,1008.2,VALID,0,VALID,104,VALID,0,VALID,24.415,VALID,39,VALID,0.021875,
2012-01-12, 01:14:04,VALID,1008.2,VALID,0,VALID,104,VALID,0,VALID,24.415,VALID,39,VALID,0,
2012-01-12, 01:15:04,VALID,1008.22,VALID,0,VALID,104,VALID,0,VALID,24.415,VALID,39,VALID,0,
2012-01-12, 01:16:04,VALID,1008.19,VALID,0,VALID,104,VALID,0,VALID,24.4345,VALID,39,VALID,0.00273437,
2012-01-12, 01:17:04,VALID,1008.17,VALID,0,VALID,104,VALID,0,VALID,24.415,VALID,196,VALID,0.445703,
2012-01-12, 01:18:04,VALID,1008.18,VALID,0,VALID,104,VALID,0,VALID,24.3779,VALID,188,VALID,0.340625,
2012-01-12, 01:19:04,VALID,1008.17,VALID,0,VALID,104,VALID,0,VALID,24.3761,VALID,250,VALID,0.561719,
2012-01-12, 01:20:04,VALID,1008.16,VALID,0,VALID,104,VALID,0,VALID,24.3761,VALID,266,VALID,0.480859,
2012-01-12, 01:21:04,VALID,1008.14,VALID,0,VALID,104,VALID,0,VALID,24.3761,VALID,269,VALID,0.454688,
2012-01-12, 01:22:04,VALID,1008.11,VALID,0,VALID,104,VALID,0,VALID,24.3158,VALID,345,VALID,0.122266,
2012-01-12, 01:23:04,VALID,1008.13,VALID,0,VALID,104,VALID,0,VALID,24.2981,VALID,356,VALID,0.841406,
2012-01-12, 01:24:04,VALID,1008.15,VALID,0,VALID,104,VALID,0,VALID,24.2786,VALID,12,VALID,0.577734,
2012-01-12, 01:25:04,VALID,1008.19,VALID,0,VALID,104,VALID,0,VALID,24.3194,VALID,12,VALID,0.388672,
2012-01-12, 01:26:04,VALID,1008.27,VALID,0.5,VALID,104,VALID,0,VALID,24.2981,VALID,332,VALID,0.844141,
2012-01-12, 01:27:04,VALID,1008.36,VALID,0,VALID,104,VALID,0,VALID,24.2786,VALID,302,VALID,1.54453,
2012-01-12, 01:28:04,VALID,1008.41,VALID,0.5,VALID,104,VALID,0,VALID,24.2786,VALID,322,VALID,0.7875,
2012-01-12, 01:29:04,VALID,1008.35,VALID,0.5,VALID,104,VALID,0,VALID,24.2981,VALID,10,VALID,0.914844,
2012-01-12, 01:30:04,VALID,1008.28,VALID,0.5,VALID,104,VALID,0,VALID,24.2981,VALID,27,VALID,1.80117,
2012-01-12, 01:31:04,VALID,1008.25,VALID,0.5,VALID,104,VALID,0,VALID,24.2591,VALID,331,VALID,1.15625,
2012-01-12, 01:32:04,VALID,1008.22,VALID,0.5,VALID,104,VALID,0,VALID,24.2396,VALID,328,VALID,0.489062,
2012-01-12, 01:33:04,VALID,1008.18,VALID,0,VALID,104,VALID,0,VALID,24.2007,VALID,346,VALID,0.761328,
2012-01-12, 01:34:04,VALID,1008.22,VALID,0.5,VALID,104,VALID,0,VALID,24.1422,VALID,350,VALID,0.976172,
2012-01-12, 01:35:04,VALID,1008.23,VALID,0,VALID,104,VALID,0,VALID,24.1227,VALID,324,VALID,0.18125,
2012-01-12, 01:36:04,VALID,1008.22,VALID,0,VALID,104,VALID,0,VALID,24.0837,VALID,352,VALID,0.548047,
2012-01-12, 01:37:04,VALID,1008.21,VALID,0,VALID,104,VALID,0,VALID,24.0643,VALID,344,VALID,0.414844,
2012-01-12, 01:38:04,VALID,1008.23,VALID,0,VALID,104,VALID,0,VALID,24.0448,VALID,344,VALID,0.0449219,
2012-01-12, 01:39:04,VALID,1008.22,VALID,0,VALID,104,VALID,0,VALID,24.0643,VALID,344,VALID,0.371484,
2012-01-12, 01:40:04,VALID,1008.24,VALID,0,VALID,104,VALID,0,VALID,24.0448,VALID,344,VALID,0.120312,
2012-01-12, 01:41:04,VALID,1008.26,VALID,0,VALID,104,VALID,0,VALID,24.0448,VALID,344,VALID,0.698828,
2012-01-12, 01:42:04,VALID,1008.25,VALID,0,VALID,104,VALID,0,VALID,24.0253,VALID,344,VALID,0.296094,
2012-01-12, 01:43:04,VALID,1008.25,VALID,0,VALID,104,VALID,0,VALID,24.0253,VALID,344,VALID,0.360938,
2012-01-12, 01:44:04,VALID,1008.27,VALID,0,VALID,104,VALID,0,VALID,24.0253,VALID,355,VALID,0.572266,
2012-01-12, 01:45:04,VALID,1008.26,VALID,0,VALID,104,VALID,0,VALID,24.0058,VALID,17,VALID,0.827734,
2012-01-12, 01:46:04,VALID,1008.27,VALID,0.5,VALID,104,VALID,0,VALID,23.9845,VALID,18,VALID,0.520312,
2012-01-12, 01:47:04,VALID,1008.29,VALID,0.5,VALID,104,VALID,0,VALID,24.0058,VALID,18,VALID,0.361328,
2012-01-12, 01:48:04,VALID,1008.33,VALID,0,VALID,104,VALID,0,VALID,23.9863,VALID,6,VALID,0.898438,
2012-01-12, 01:49:04,VALID,1008.37,VALID,0.5,VALID,104,VALID,0,VALID,23.9881,VALID,356,VALID,0.420312,
2012-01-12, 01:50:04,VALID,1008.34,VALID,1,VALID,104,VALID,0,VALID,23.9668,VALID,344,VALID,0.365234,
2012-01-12, 01:51:04,VALID,1008.31,VALID,1,VALID,104,VALID,0,VALID,23.9881,VALID,3,VALID,0.644141,
2012-01-12, 01:52:04,VALID,1008.3,VALID,0.5,VALID,104,VALID,0,VALID,23.9278,VALID,40,VALID,0.15625,
2012-01-12, 01:53:04,VALID,1008.31,VALID,0,VALID,104,VALID,0,VALID,23.9084,VALID,40,VALID,0.411719,
2012-01-12, 01:54:04,VALID,1008.33,VALID,0,VALID,104,VALID,0,VALID,23.9102,VALID,40,VALID,0.151562,
2012-01-12, 01:55:04,VALID,1008.29,VALID,0,VALID,104,VALID,0,VALID,23.8889,VALID,40,VALID,0,
2012-01-12, 01:56:04,VALID,1008.25,VALID,0,VALID,104,VALID,0,VALID,23.8889,VALID,40,VALID,0,
2012-01-12, 01:57:04,VALID,1008.27,VALID,0.5,VALID,104,VALID,0,VALID,23.9102,VALID,40,VALID,0.203516,
2012-01-12, 01:58:04,VALID,1008.24,VALID,0,VALID,104,VALID,0,VALID,23.8499,VALID,40,VALID,0.0535156,
2012-01-12, 01:59:04,VALID,1008.19,VALID,0,VALID,104,VALID,0,VALID,23.8304,VALID,40,VALID,0.432813,
2012-01-12, 02:00:04,VALID,1008.14,VALID,0,VALID,104,VALID,0,VALID,23.8304,VALID,40,VALID,0.687891,
2012-01-12, 02:01:04,VALID,1008.16,VALID,0,VALID,104,VALID,0,VALID,23.8127,VALID,40,VALID,0.14375,
2012-01-12, 02:02:04,VALID,1008.15,VALID,0,VALID,104,VALID,0,VALID,23.8109,VALID,40,VALID,0.0015625,
2012-01-12, 02:03:04,VALID,1008.12,VALID,0,VALID,104,VALID,0,VALID,23.8304,VALID,40,VALID,0.30625,
2012-01-12, 02:04:04,VALID,1008.12,VALID,0,VALID,104,VALID,0,VALID,23.8127,VALID,40,VALID,0,
2012-01-12, 02:05:04,VALID,1008.11,VALID,0,VALID,104,VALID,0,VALID,23.772,VALID,40,VALID,0.00429688,
2012-01-12, 02:06:04,VALID,1008.06,VALID,0,VALID,104,VALID,0.112112,VALID,23.8091,VALID,40,VALID,0,
2012-01-12, 02:07:04,VALID,1008.05,VALID,0,VALID,104,VALID,0,VALID,23.8109,VALID,40,VALID,0,
2012-01-12, 02:08:04,VALID,1008.02,VALID,0,VALID,104,VALID,0,VALID,23.8109,VALID,40,VALID,0,
2012-01-12, 02:09:04,VALID,1008.02,VALID,0,VALID,104,VALID,0,VALID,23.8127,VALID,40,VALID,0.287109,
2012-01-12, 02:10:04,VALID,1008.01,VALID,0,VALID,104,VALID,0,VALID,23.772,VALID,40,VALID,0.257813,
2012-01-12, 02:11:04,VALID,1008.01,VALID,0,VALID,104,VALID,0,VALID,23.7525,VALID,40,VALID,0.0945313,
2012-01-12, 02:12:04,VALID,1008.04,VALID,0,VALID,104,VALID,0,VALID,23.7543,VALID,40,VALID,0,
2012-01-12, 02:13:04,VALID,1008.03,VALID,0,VALID,104,VALID,0,VALID,23.733,VALID,40,VALID,0,
2012-01-12, 02:14:04,VALID,1008.06,VALID,0,VALID,104,VALID,0,VALID,23.7525,VALID,40,VALID,0,
2012-01-12, 02:15:04,VALID,1008.05,VALID,0,VALID,104,VALID,0,VALID,23.7525,VALID,40,VALID,0,
2012-01-12, 02:16:04,VALID,1007.99,VALID,0,VALID,104,VALID,0,VALID,23.7914,VALID,40,VALID,0,
2012-01-12, 02:17:04,VALID,1007.94,VALID,0,VALID,104,VALID,0,VALID,23.7932,VALID,40,VALID,0,
2012-01-12, 02:18:04,VALID,1007.95,VALID,0,VALID,104,VALID,0,VALID,23.7932,VALID,40,VALID,0,
2012-01-12, 02:19:04,VALID,1007.95,VALID,0,VALID,104,VALID,0,VALID,23.7701,VALID,40,VALID,0,
2012-01-12, 02:20:04,VALID,1007.95,VALID,0,VALID,104,VALID,0,VALID,23.7914,VALID,40,VALID,0,
2012-01-12, 02:21:04,VALID,1007.97,VALID,0,VALID,104,VALID,0,VALID,23.8304,VALID,40,VALID,0.363281,
2012-01-12, 02:22:04,VALID,1007.96,VALID,0,VALID,104,VALID,0,VALID,23.8091,VALID,40,VALID,0.626172,
2012-01-12, 02:23:04,VALID,1007.99,VALID,0,VALID,104,VALID,0,VALID,23.8304,VALID,40,VALID,0.538281,
2012-01-12, 02:24:04,VALID,1007.95,VALID,0,VALID,104,VALID,0,VALID,23.8109,VALID,40,VALID,0.621094,
2012-01-12, 02:25:04,VALID,1007.96,VALID,0,VALID,104,VALID,0,VALID,23.7914,VALID,40,VALID,0.540234,
2012-01-12, 02:26:04,VALID,1007.93,VALID,0,VALID,104,VALID,0,VALID,23.772,VALID,40,VALID,0.540234,
2012-01-12, 02:27:04,VALID,1007.93,VALID,0.5,VALID,104,VALID,0,VALID,23.7914,VALID,40,VALID,0.601563,
2012-01-12, 02:28:04,VALID,1007.94,VALID,0,VALID,104,VALID,0,VALID,23.8109,VALID,40,VALID,0.352344,
2012-01-12, 02:29:04,VALID,1007.9,VALID,0,VALID,104,VALID,0,VALID,23.8109,VALID,40,VALID,0.336328,
2012-01-12, 02:30:04,VALID,1007.87,VALID,0,VALID,104,VALID,0,VALID,23.8109,VALID,40,VALID,0.059375,
2012-01-12, 02:31:04,VALID,1007.81,VALID,0,VALID,104,VALID,0,VALID,23.8304,VALID,40,VALID,0.282422,
2012-01-12, 02:32:04,VALID,1007.78,VALID,0,VALID,104,VALID,0,VALID,23.8712,VALID,40,VALID,0,
2012-01-12, 02:33:04,VALID,1007.76,VALID,0,VALID,104,VALID,0,VALID,23.8499,VALID,40,VALID,0,
2012-01-12, 02:34:04,VALID,1007.72,VALID,0,VALID,104,VALID,0,VALID,23.8286,VALID,40,VALID,0.13125,
2012-01-12, 02:35:04,VALID,1007.68,VALID,0,VALID,104,VALID,0,VALID,23.8499,VALID,40,VALID,0,
2012-01-12, 02:36:04,VALID,1007.66,VALID,0,VALID,104,VALID,0,VALID,23.8499,VALID,40,VALID,0.435156,
2012-01-12, 02:37:04,VALID,1007.62,VALID,0,VALID,104,VALID,0,VALID,23.8889,VALID,40,VALID,0.295312,
2012-01-12, 02:38:04,VALID,1007.6,VALID,0,VALID,104,VALID,0,VALID,23.8889,VALID,40,VALID,0.344141,
2012-01-12, 02:39:04,VALID,1007.59,VALID,0,VALID,104,VALID,0,VALID,23.8889,VALID,40,VALID,0.416016,
2012-01-12, 02:40:04,VALID,1007.59,VALID,0,VALID,104,VALID,0,VALID,23.8889,VALID,40,VALID,0.563672,
2012-01-12, 02:41:04,VALID,1007.57,VALID,0,VALID,104,VALID,0,VALID,23.8889,VALID,40,VALID,0.403516,
2012-01-12, 02:42:04,VALID,1007.58,VALID,0,VALID,104,VALID,0,VALID,23.8889,VALID,40,VALID,0.415625,
2012-01-12, 02:43:04,VALID,1007.53,VALID,0,VALID,104,VALID,0,VALID,23.9278,VALID,40,VALID,0.389062,
2012-01-12, 02:44:04,VALID,1007.53,VALID,0,VALID,104,VALID,0,VALID,23.9084,VALID,40,VALID,0.327734,
2012-01-12, 02:45:04,VALID,1007.5,VALID,0.5,VALID,104,VALID,0,VALID,23.9473,VALID,40,VALID,0.305469,
2012-01-12, 02:46:04,VALID,1007.46,VALID,0,VALID,104,VALID,0,VALID,23.9278,VALID,40,VALID,0.461719,
2012-01-12, 02:47:04,VALID,1007.46,VALID,0,VALID,104,VALID,0,VALID,23.9473,VALID,40,VALID,0.382813,
2012-01-12, 02:48:04,VALID,1007.47,VALID,0,VALID,104,VALID,0,VALID,23.9278,VALID,40,VALID,0.228125,
2012-01-12, 02:49:04,VALID,1007.48,VALID,0,VALID,104,VALID,0,VALID,23.9473,VALID,40,VALID,0.147266,
2012-01-12, 02:50:04,VALID,1007.48,VALID,0,VALID,104,VALID,0,VALID,23.926,VALID,40,VALID,0.025,
2012-01-12, 02:51:04,VALID,1007.49,VALID,0,VALID,104,VALID,0,VALID,23.9473,VALID,40,VALID,0,
2012-01-12, 02:52:04,VALID,1007.5,VALID,0,VALID,104,VALID,0,VALID,23.9278,VALID,40,VALID,0,
2012-01-12, 02:53:04,VALID,1007.5,VALID,0,VALID,104,VALID,0,VALID,23.9278,VALID,40,VALID,0,
2012-01-12, 02:54:04,VALID,1007.49,VALID,0,VALID,104,VALID,0,VALID,23.9084,VALID,40,VALID,0,
2012-01-12, 02:55:04,VALID,1007.47,VALID,0,VALID,104,VALID,0,VALID,23.9278,VALID,40,VALID,0,
2012-01-12, 02:56:04,VALID,1007.48,VALID,0,VALID,104,VALID,0,VALID,23.9084,VALID,40,VALID,0,
2012-01-12, 02:57:04,VALID,1007.47,VALID,0,VALID,104,VALID,0,VALID,23.9084,VALID,40,VALID,0,
2012-01-12, 02:58:04,VALID,1007.46,VALID,0,VALID,104,VALID,0,VALID,23.8889,VALID,40,VALID,0,
2012-01-12, 02:59:04,VALID,1007.44,VALID,0,VALID,104,VALID,0,VALID,23.9084,VALID,40,VALID,0,
2012-01-12, 03:00:04,VALID,1007.46,VALID,0,VALID,104,VALID,0,VALID,23.9084,VALID,40,VALID,0,
2012-01-12, 03:01:04,VALID,1007.44,VALID,0,VALID,104,VALID,0,VALID,23.9084,VALID,40,VALID,0,
2012-01-12, 03:02:04,VALID,1007.43,VALID,0,VALID,104,VALID,0,VALID,23.8889,VALID,40,VALID,0,
2012-01-12, 03:03:04,VALID,1007.44,VALID,0,VALID,104,VALID,0,VALID,23.9084,VALID,40,VALID,0,
2012-01-12, 03:04:04,VALID,1007.4,VALID,0,VALID,104,VALID,0,VALID,23.9084,VALID,40,VALID,0,
2012-01-12, 03:05:04,VALID,1007.41,VALID,0,VALID,104,VALID,0,VALID,23.8889,VALID,40,VALID,0,
2012-01-12, 03:06:04,VALID,1007.36,VALID,0,VALID,104,VALID,0,VALID,23.8889,VALID,40,VALID,0,
2012-01-12, 03:07:04,VALID,1007.34,VALID,0,VALID,104,VALID,0,VALID,23.8889,VALID,40,VALID,0.137891,
2012-01-12, 03:08:04,VALID,1007.32,VALID,0,VALID,104,VALID,0,VALID,23.8889,VALID,40,VALID,0.162109,
2012-01-12, 03:09:04,VALID,1007.31,VALID,0,VALID,104,VALID,0,VALID,23.9084,VALID,40,VALID,0.442578,
2012-01-12, 03:10:04,VALID,1007.28,VALID,0,VALID,104,VALID,0,VALID,23.9278,VALID,40,VALID,0.53125,
2012-01-12, 03:11:04,VALID,1007.27,VALID,0,VALID,104,VALID,0,VALID,23.9278,VALID,100,VALID,0.705469,
2012-01-12, 03:12:04,VALID,1007.27,VALID,0,VALID,104,VALID,0,VALID,23.8871,VALID,100,VALID,0.437109,
2012-01-12, 03:13:04,VALID,1007.25,VALID,0,VALID,104,VALID,0,VALID,23.9102,VALID,96,VALID,0.656641,
2012-01-12, 03:14:04,VALID,1007.22,VALID,0,VALID,104,VALID,0,VALID,23.8907,VALID,96,VALID,0.587109,
2012-01-12, 03:15:04,VALID,1007.22,VALID,0,VALID,104,VALID,0,VALID,23.8694,VALID,94,VALID,0.642187,
2012-01-12, 03:16:04,VALID,1007.17,VALID,0,VALID,104,VALID,0,VALID,23.8694,VALID,94,VALID,0.709375,
2012-01-12, 03:17:04,VALID,1007.15,VALID,0,VALID,104,VALID,0,VALID,23.8499,VALID,81,VALID,0.764063,
2012-01-12, 03:18:04,VALID,1007.13,VALID,0,VALID,104,VALID,0,VALID,23.8499,VALID,76,VALID,0.578516,
2012-01-12, 03:19:04,VALID,1007.13,VALID,0,VALID,104,VALID,0,VALID,23.8694,VALID,76,VALID,0.549609,
2012-01-12, 03:20:04,VALID,1007.1,VALID,0,VALID,104,VALID,0,VALID,23.8694,VALID,76,VALID,0.687109,
2012-01-12, 03:21:04,VALID,1007.1,VALID,0,VALID,104,VALID,0,VALID,23.8499,VALID,81,VALID,0.769922,
2012-01-12, 03:22:04,VALID,1007.1,VALID,0,VALID,104,VALID,0,VALID,23.8694,VALID,84,VALID,0.723047,
2012-01-12, 03:23:04,VALID,1007.09,VALID,0,VALID,104,VALID,0,VALID,23.8499,VALID,84,VALID,0.425781,
2012-01-12, 03:24:04,VALID,1007.12,VALID,0,VALID,104,VALID,0.112112,VALID,23.8499,VALID,85,VALID,0.384375,
2012-01-12, 03:25:04,VALID,1007.17,VALID,0,VALID,104,VALID,0,VALID,23.8499,VALID,85,VALID,0.0113281,
2012-01-12, 03:26:04,VALID,1007.14,VALID,0,VALID,104,VALID,0,VALID,23.8109,VALID,85,VALID,0.127734,
2012-01-12, 03:27:04,VALID,1007.17,VALID,0,VALID,104,VALID,0,VALID,23.7896,VALID,85,VALID,0.189844,
2012-01-12, 03:28:04,VALID,1007.14,VALID,0,VALID,104,VALID,0.112112,VALID,23.7914,VALID,85,VALID,0.337109,
2012-01-12, 03:29:04,VALID,1007.12,VALID,0,VALID,104,VALID,0.112112,VALID,23.772,VALID,85,VALID,0.275,
2012-01-12, 03:30:04,VALID,1007.1,VALID,0,VALID,104,VALID,0,VALID,23.7525,VALID,85,VALID,0.325781,
2012-01-12, 03:31:04,VALID,1007.1,VALID,0,VALID,104,VALID,0,VALID,23.733,VALID,85,VALID,0.338281,
2012-01-12, 03:32:04,VALID,1007.07,VALID,0,VALID,104,VALID,0,VALID,23.7135,VALID,85,VALID,0.185156,
2012-01-12, 03:33:04,VALID,1007.05,VALID,0,VALID,104,VALID,0.112112,VALID,23.7135,VALID,85,VALID,0.234375,
2012-01-12, 03:34:04,VALID,1007.05,VALID,0,VALID,104,VALID,0,VALID,23.7135,VALID,85,VALID,0.267188,
2012-01-12, 03:35:04,VALID,1007.04,VALID,0,VALID,104,VALID,0.112112,VALID,23.694,VALID,85,VALID,0,
2012-01-12, 03:36:04,VALID,1007.01,VALID,0,VALID,104,VALID,0,VALID,23.694,VALID,85,VALID,0,
2012-01-12, 03:37:04,VALID,1007.01,VALID,0,VALID,104,VALID,0,VALID,23.6745,VALID,85,VALID,0,
2012-01-12, 03:38:04,VALID,1006.96,VALID,0,VALID,104,VALID,0,VALID,23.6745,VALID,85,VALID,0,
2012-01-12, 03:39:04,VALID,1006.96,VALID,0,VALID,104,VALID,0,VALID,23.655,VALID,85,VALID,0,
2012-01-12, 03:40:04,VALID,1006.95,VALID,0,VALID,104,VALID,0,VALID,23.6356,VALID,85,VALID,0,
2012-01-12, 03:41:04,VALID,1006.92,VALID,0,VALID,104,VALID,0,VALID,23.6356,VALID,85,VALID,0,
2012-01-12, 03:42:04,VALID,1006.91,VALID,0,VALID,104,VALID,0,VALID,23.6338,VALID,85,VALID,0,
2012-01-12, 03:43:04,VALID,1006.91,VALID,0,VALID,104,VALID,0,VALID,23.6745,VALID,85,VALID,0.0589844,
2012-01-12, 03:44:04,VALID,1006.91,VALID,0,VALID,104,VALID,0.112112,VALID,23.6745,VALID,85,VALID,0,
2012-01-12, 03:45:04,VALID,1006.91,VALID,0,VALID,104,VALID,0,VALID,23.6745,VALID,85,VALID,0,
2012-01-12, 03:46:04,VALID,1006.91,VALID,0,VALID,104,VALID,0,VALID,23.6745,VALID,85,VALID,0,
2012-01-12, 03:47:04,VALID,1006.89,VALID,0,VALID,104,VALID,0,VALID,23.6745,VALID,85,VALID,0,
2012-01-12, 03:48:04,VALID,1006.87,VALID,0,VALID,104,VALID,0,VALID,23.6745,VALID,85,VALID,0,
2012-01-12, 03:49:04,VALID,1006.83,VALID,0,VALID,104,VALID,0,VALID,23.6745,VALID,85,VALID,0,
2012-01-12, 03:50:04,VALID,1006.82,VALID,0,VALID,104,VALID,0,VALID,23.6745,VALID,85,VALID,0,
2012-01-12, 03:51:04,VALID,1006.81,VALID,0,VALID,104,VALID,0,VALID,23.6338,VALID,85,VALID,0,
2012-01-12, 03:52:04,VALID,1006.81,VALID,0,VALID,104,VALID,0,VALID,23.655,VALID,85,VALID,0,
2012-01-12, 03:53:04,VALID,1006.8,VALID,0,VALID,104,VALID,0,VALID,23.655,VALID,85,VALID,0,
2012-01-12, 03:54:04,VALID,1006.78,VALID,0,VALID,104,VALID,0,VALID,23.655,VALID,85,VALID,0,
2012-01-12, 03:55:04,VALID,1006.73,VALID,0,VALID,104,VALID,0,VALID,23.655,VALID,85,VALID,0,
2012-01-12, 03:56:04,VALID,1006.7,VALID,0,VALID,104,VALID,0.112112,VALID,23.6356,VALID,85,VALID,0,